Regional Weather Roundup
Issued by NWS

Home | Current Version | Previous Version | Graphics & Text | Print | Product List | Glossary On
Versions: 1 2 3 4 5 6 7 8 9 10 11 12 13 14 15 16 17 18 19 20 21 22 23 24 25 26 27 28
000
ASUS45 KTFX 212210
RWRMT
MONTANA REGIONAL WEATHER ROUNDUP
NATIONAL WEATHER SERVICE GREAT FALLS MT
400 PM MDT SAT APR 21 2018

NOTE: "FAIR" INDICATES FEW OR NO CLOUDS BELOW 12000 FEET WITH NO
SIGNIFICANT WEATHER AND/OR OBSTRUCTIONS TO VISIBILITY.

MTZ001>007-043-212300-
WEST OF THE DIVIDE

CITY           SKY/WX    TMP DP  RH WIND       PRES   REMARKS
KALISPELL      PTSUNNY   57  18  21 W23G40    30.07R
MISSOULA       FAIR      57  27  31 W24G33    30.14F
BUTTE          FAIR      63  23  21 W18       30.05F
MULLAN PASS    PTSUNNY   39  20  46 SW13G24   30.15S WCI  31
ANACONDA         N/A     61  25  25 MISG      30.04F
DEER LODGE       N/A     63  25  23 MISG      30.07F
HAMILTON         N/A     57  27  30 MISG      30.13S
PLAINS           N/A     59  22  24 W13       30.13R
RONAN            N/A     59  25  27 W20       30.12R
$$

MTZ008-052>055-212300-
SOUTHWEST MONTANA

CITY           SKY/WX    TMP DP  RH WIND       PRES   REMARKS
BOZEMAN        FAIR      70  28  21 W14       29.98F
DILLON         FAIR      66  23  19 W20G28    30.04F
ENNIS          SUNNY     68  25  19 W12G21    30.08S
W YELLOWSTONE  FAIR      54  25  32 SW12G22   30.13S
THREE FORKS      N/A     72  26  18 W22       29.97F
TWIN BRIDGES     N/A     68  25  20 S17       30.01F
$$

MTZ009-010-012-014-046-048-049-054-212300-
EAST SLOPES AND CENTRAL MONTANA

CITY           SKY/WX    TMP DP  RH WIND       PRES   REMARKS
CUT BANK       FAIR      54  24  31 W44G51    29.93F
GREAT FALLS    FAIR      62  26  25 W37G49    29.95R
HELENA         FAIR      65  31  28 W24G35    30.00F
AUGUSTA        FAIR      56  21  25 W26       29.95S
BOWMANS CRNR   FAIR      57  24  27 W25G35    29.97R
CHOTEAU          N/A     59  19  21 W28G37    29.97R
FAIRFIELD      FAIR      60  21  22 SW29G37   29.96R
POWER          FAIR      61  22  23 SW31G41   29.95S
RAYNESFORD     FAIR      65  27  23 W30G41    29.92F
ULM            FAIR      64  27  24 W30G38    29.96R
WHITE SULPHUR    N/A     66  28  24 W16       29.97F
$$

MTZ011-013-016-021-045-047-050-051-212300-
NORTH CENTRAL MONTANA

CITY           SKY/WX    TMP DP  RH WIND       PRES   REMARKS
HAVRE          CLOUDY    65  36  34 W23G29    29.86F
LEWISTOWN      FAIR      68  29  23 W12G17    29.93F
N BAR RANCH    FAIR      68  27  21 SW13      29.96F
CHINOOK          N/A     66  36  32 W12       29.85F
GEYSER         FAIR      67  28  23 W25G33    29.92S
GRASS RANGE    FAIR      69  32  25 NW14      29.89F
STANFORD       FAIR      68  25  19 W17       29.93F
$$

MTZ017>020-022>027-061-062-212300-
NORTHEAST MONTANA

CITY           SKY/WX    TMP DP  RH WIND       PRES   REMARKS
GLASGOW        FAIR      75  35  23 S16G26    29.85F
GLENDIVE       FAIR      69  40  34 S16G26    29.98F
JORDAN           N/A     74  35  24 SW20G25   29.89F
MALTA          SUNNY     72  37  28 W16G23    29.81F
SIDNEY         FAIR      70  40  33 S24       29.96F
WOLF POINT     FAIR      76  32  20 SW13      29.88F
PLENTYWOOD       N/A     68  37  32 MISG      29.92F
POPLAR           N/A     73  34  23 MISG      29.89F
SCOBEY           N/A     70  32  24 S20       29.88F
$$

MTZ028>42-056>058-212300-
SOUTHCENTRAL AND SOUTHEAST MONTANA

CITY           SKY/WX    TMP DP  RH WIND       PRES   REMARKS
BAKER          FAIR      63  38  39 S21G30    30.04F
BILLINGS       PTSUNNY   71  31  22 W9        29.94F
MILES CITY     FAIR      70  41  34 S16G23    29.95F
BIG TIMBER     SUNNY     70  28  21 W17G25    29.97
EKALAKA          N/A     61  35  37 SE13      30.02F
FORSYTH          N/A     70  37  30 MISG      29.92F
HARLOWTON      FAIR      70  28  20 W22G29    29.96F
LAUREL           N/A     72  30  21 S9        29.95F
$$

REGIONAL REPORTS...DAKOTAS

CITY           SKY/WX    TMP DP  RH WIND       PRES   REMARKS
WILLISTON      FAIR      68  38  33 S18G29    29.98F
MINOT          FAIR      65  38  36 S25G32    30.08F
DICKINSON      FAIR      62  36  37 S25G35    30.06F
BEACH          FAIR      64  34  32 S24G33    30.04F
CROSBY         FAIR      66  41  39 S24       29.96F
TIOGA          FAIR      63  43  48 S22G32    30.01F
WATFORD CITY   FAIR      68  37  32 S21G28    30.00F
BISMARCK       FAIR      61  34  36 S25       30.17S
GRAND FORKS    FAIR      58  47  66 SW15      30.26F
FARGO          FAIR      62  37  39 S14G23    30.27F
BUFFALO SD       N/A     60  35  39 S21       30.02F
RAPID CITY     FAIR      53  39  59 S21G31    30.14F
$$

REGIONAL REPORTS...WYOMING/IDAHO/WASHINGTON

CITY           SKY/WX    TMP DP  RH WIND       PRES   REMARKS
GILLETTE       FAIR      57  38  48 SE15      30.07F
SHERIDAN       FAIR      69  35  28 W5        30.00F
BUFFALO WY     FAIR      63  31  30 CALM      30.05F
CODY           FAIR      68  25  19 VRB3      30.01F
YELLOWSTONE LA   N/A     52  22  30 W10       30.20S
IDAHO FALLS    FAIR      66  32  28 SW13      30.11F
SALMON         FAIR      70  27  20 SW15G25   30.02F
BOISE          FAIR      70  34  26 NW13G20   30.13F
SPOKANE        FAIR      57  24  28 SW23G30   30.20R
$$

REGIONAL REPORTS...ALBERTA

CITY           SKY/WX    TMP DP  RH WIND       PRES   REMARKS
CALGARY        PTSUNNY   48  32  53 N18       29.78R
CARDSTON         N/A     52  25  35 W21G32      N/A
EDMONTON       LGT RAIN  41  30  65 NW14      29.74R
FORT MCMURRAY  CLOUDY    55  28  35 S10G18    29.74F
HIGH LEVEL     LGT RAIN  46  36  66 CALM      29.79S
LETHBRIDGE     MOSUNNY   52  28  40 W41G59    29.90R
LLOYDMINSTER   CLOUDY    45  39  81 NE5       29.63F
MEDICINE HAT   MOSUNNY   63  23  22 SW40G54   29.79R
PEACE RIVER    CLOUDY    43  32  65 SW14      29.75R
PINCHER CREEK  SUNNY     45  27  49 SW36G45   29.93F
WATERTON GATE    N/A     48  21  34 W24G37      N/A
$$

REGIONAL REPORTS...SASKATCHEWAN

CITY           SKY/WX    TMP DP  RH WIND       PRES   REMARKS
CORONACH         N/A     70  30  23 S17         N/A
CYPRESS HILLS    N/A     52  23  32 W26G45      N/A
ESTEVAN        PTSUNNY   64  41  42 S20G32    29.97F
MOOSE JAW        N/A     70  32  24 S22G29      N/A
PRINCE ALBERT  CLOUDY    45  37  76 E8        29.80F
REGINA         CLOUDY    64  41  42 SE21G29   29.85F
ROCKGLEN         N/A     66  34  30 S18         N/A
SASKATOON      CLOUDY    64  37  36 SW15      29.72F
SWIFT CURRENT  PTSUNNY   63  36  36 SW22G29   29.79F
VAL MARIE        N/A     68  28  22 W18G24      N/A
$$




USA.gov is the U.S. government's official web portal to all federal, state and local government web resources and services.